Wind_Speed
3 3 2 1 1 2 1 2 3 4 5 4 4 4 3 3 3 2 3 4 4 4 4 4 4 4 5 5 5 6 6 6 6 6 6 6 6 5 5 5 5 6 5
2 2 2 1 0 1 0 1 3 4 5 5 5 4 4 4 3 3 3 4 4 5 5 5 5 5 5 6 6 7 7 7 7 7 7 7 7 7 7 7 7 7 7
2 1 1 1 1 1 1 2 2 3 4 5 5 4 3 3 4 4 4 4 4 4 5 5 5 6 6 6 7 7 8 8 9 8 8 8 7 8 8 8 8 8 9
3 2 1 1 1 2 2 2 2 3 3 4 4 4 3 4 4 5 5 5 5 5 5 6 6 7 7 7 8 8 8 9 10 10 10 9 9 8 9 10 9 10 10
4 3 2 2 3 4 4 4 4 3 2 3 3 4 4 5 5 5 5 5 5 5 5 6 7 8 8 8 8 9 9 9 10 10 10 11 11 10 10 10 11 11 11
5 4 3 3 4 4 4 4 4 3 3 3 2 3 3 4 4 5 5 5 5 6 6 7 7 8 8 8 9 9 10 10 11 11 12 12 12 12 12 12 12 12 12
5 5 4 4 3 3 4 4 4 3 3 2 2 2 2 3 4 5 5 5 6 7 7 8 9 9 9 9 10 10 10 11 12 12 13 13 13 13 13 13 13 13 13
6 5 5 4 4 4 3 3 2 3 3 3 3 3 3 4 4 5 6 6 7 7 8 9 9 10 10 10 10 11 11 11 12 12 13 13 14 13 13 14 14 15 15
7 6 5 5 5 4 4 4 3 3 3 3 4 4 5 5 6 6 7 7 7 8 9 9 10 10 10 10 11 11 11 11 12 12 13 14 14 14 14 14 14 15 16
7 6 6 5 5 5 5 5 4 4 4 5 5 5 6 6 6 6 7 8 9 9 9 10 10 11 12 12 12 12 12 12 12 13 14 15 15 15 15 15 15 16 17
8 7 6 6 6 5 5 5 5 5 5 5 6 6 7 7 7 7 8 9 10 10 10 10 11 12 12 13 13 13 13 14 13 14 14 15 15 16 16 16 17 18 17
8 7 7 7 7 6 6 6 6 6 6 6 7 7 8 9 10 9 9 9 10 10 10 10 11 12 13 13 13 14 14 14 14 15 16 16 16 16 16 17 17 18 18
9 8 8 8 8 7 7 7 7 7 7 8 8 9 10 10 10 11 11 11 11 11 11 12 12 12 13 13 13 13 14 14 14 15 16 16 16 16 17 17 18 17 18
10 10 9 9 9 8 8 8 8 8 9 9 10 10 11 11 11 12 12 12 12 12 12 12 12 12 13 13 14 14 14 15 15 15 16 16 15 16 16 16 17 17 17
10 10 10 10 10 10 9 10 10 10 10 11 11 11 11 11 11 12 12 12 12 12 12 12 13 14 14 15 16 16 16 16 16 16 17 17 16 16 16 16 16 17 17
12 11 11 10 10 10 10 11 11 11 11 12 12 12 12 12 12 12 13 13 13 13 13 14 15 15 16 17 17 17 17 17 17 17 18 18 17 17 16 16 17 17 18
13 12 12 11 11 11 11 11 12 12 12 13 13 13 13 13 14 14 14 13 13 14 14 14 15 16 17 18 18 18 19 18 18 18 19 18 17 18 17 18 18 19 19
13 13 12 12 12 12 12 12 12 13 14 13 14 14 14 15 15 15 15 15 15 15 15 15 16 17 18 18 19 20 19 19 18 18 18 18 18 19 18 19 19 20 20
13 13 14 13 13 13 13 13 13 13 14 14 15 15 16 16 16 16 16 16 16 16 17 17 18 18 19 19 20 20 19 19 18 18 19 19 19 19 20 20 21 21 21
14 14 14 14 14 14 14 14 15 15 15 16 16 16 16 16 17 17 17 18 18 18 19 19 19 19 19 20 20 20 19 19 19 20 20 20 20 20 20 21 22 22 22
16 15 16 16 16 16 15 15 16 16 17 17 17 17 17 18 18 18 19 19 19 20 20 20 20 20 20 21 21 20 20 19 19 20 20 21 21 20 20 22 23 23 23
18 18 18 18 18 18 18 17 17 17 18 18 18 18 18 19 19 19 19 19 20 21 21 21 20 20 20 21 21 20 20 20 20 20 20 21 21 21 22 23 23 24 24
21 20 20 20 20 20 20 20 19 19 19 20 20 19 20 20 20 21 20 20 20 21 21 21 21 21 21 21 21 21 21 21 21 21 21 21 22 22 22 23 23 24 24
23 23 23 22 22 22 22 22 21 21 21 21 21 21 21 21 21 22 21 21 21 21 22 22 22 22 22 22 22 23 23 23 22 23 23 23 23 23 23 23 24 24 24
25 25 25 25 24 23 24 24 24 23 23 23 23 23 23 24 23 23 23 22 22 23 23 24 23 23 23 23 23 24 25 25 24 23 23 23 23 23 23 23 23 23 23
28 28 27 26 26 26 26 25 26 25 25 25 25 25 25 25 25 25 25 24 24 24 25 25 24 24 24 24 25 25 25 25 25 24 23 23 23 23 23 23 23 22 23
Wind_Direction
91 102 121 121 170 183 198 220 225 238 234 231 230 232 241 252 257 263 275 278 280 279 272 272 282 287 277 270 264 256 249 255 256 260 267 273 272 269 267 268 268 277 283
74 56 73 106 159 256 231 233 242 244 247 244 243 244 244 251 263 274 291 293 289 287 283 280 281 286 277 272 266 259 253 254 255 259 262 267 268 265 269 270 271 273 279
24 38 21 12 0 311 280 299 273 257 253 253 258 254 257 261 271 279 286 287 288 288 286 285 284 286 278 272 266 263 259 258 258 262 264 265 268 265 268 271 271 271 273
19 33 333 288 314 333 315 309 289 289 268 257 257 265 271 269 276 278 281 283 283 284 283 285 286 285 280 275 274 270 267 266 262 261 262 266 268 267 268 269 274 273 273
24 15 14 345 329 330 326 314 307 309 287 281 267 261 266 273 278 280 285 282 278 279 281 283 286 288 283 282 282 276 271 269 266 263 264 269 271 268 268 269 273 275 274
24 18 13 2 352 337 333 334 333 338 327 318 297 273 277 281 281 284 290 288 281 281 284 288 287 288 289 289 288 280 272 268 265 265 267 269 271 271 273 271 271 274 273
21 20 13 6 353 344 337 337 338 342 345 338 317 307 307 295 297 298 293 297 291 287 288 291 288 287 288 291 289 285 277 270 268 269 270 269 271 270 273 273 275 274 273
21 19 17 11 7 11 8 3 349 339 338 337 333 327 322 310 304 303 296 298 298 295 296 294 291 290 291 293 292 287 285 281 279 275 272 272 274 272 273 274 275 276 275
9 10 17 13 8 4 358 351 341 337 332 329 329 319 310 303 303 298 299 301 300 296 296 296 293 291 292 294 294 291 286 285 281 278 278 276 277 274 272 274 280 279 278
7 9 11 7 2 355 347 343 334 326 319 317 314 313 310 307 304 301 299 297 295 295 295 296 292 292 292 291 292 289 286 286 284 280 278 276 276 274 272 275 281 284 281
5 3 3 1 354 350 340 333 327 315 311 311 314 313 312 313 311 302 301 300 298 297 295 293 293 293 292 291 292 292 286 284 282 283 281 280 279 277 275 275 279 281 280
357 356 354 354 351 344 339 336 330 322 312 309 310 314 315 315 314 308 302 301 298 296 296 294 294 295 293 295 295 294 289 286 283 282 282 281 280 278 278 279 279 278 276
349 349 349 345 341 336 336 336 331 324 316 312 311 311 311 311 311 309 305 305 301 297 296 294 294 295 295 295 297 296 294 289 286 285 283 283 281 278 279 280 280 279 277
346 347 346 343 337 331 329 329 326 322 320 315 312 309 308 307 307 307 307 306 306 303 299 300 302 300 298 295 295 295 293 288 286 285 284 284 288 286 286 282 280 279 278
340 338 336 334 330 325 321 321 320 317 317 316 314 310 308 305 305 305 305 304 304 307 307 306 307 305 301 299 298 295 293 290 288 286 284 285 286 287 285 283 282 283 282
332 332 330 328 325 322 318 318 317 314 313 312 311 310 307 305 304 303 303 301 300 301 302 302 301 301 300 299 299 297 295 290 287 284 283 282 284 287 287 284 282 282 283
324 324 324 323 321 318 315 315 316 312 310 310 309 307 307 306 306 304 303 302 299 299 299 301 303 301 299 298 298 299 296 291 286 282 281 281 284 286 285 284 281 281 283
320 318 316 317 317 316 316 316 314 313 310 310 310 308 307 306 304 302 301 301 300 300 300 301 302 303 304 302 298 297 297 292 288 283 281 283 284 284 285 285 285 284 284
312 313 314 313 312 312 313 312 310 309 309 309 307 305 304 303 302 299 298 298 299 300 300 303 304 305 305 303 301 297 294 290 288 286 285 284 285 286 286 285 284 285 285
307 310 310 309 307 306 306 306 304 303 305 305 304 303 302 302 301 299 299 299 299 300 299 301 304 304 303 303 301 297 294 290 290 288 286 286 286 286 286 286 286 286 286
305 305 305 304 303 304 303 303 303 302 302 301 300 300 300 300 300 300 300 299 299 299 300 300 301 302 303 304 303 302 300 296 291 288 286 287 287 288 288 289 289 286 286
301 302 302 300 300 300 301 301 300 300 301 300 299 299 300 299 299 299 299 299 300 301 301 300 301 303 304 304 304 304 303 299 294 291 289 289 289 291 291 290 290 287 286
296 297 299 298 297 296 296 297 297 297 297 299 299 298 298 299 300 298 297 297 299 302 300 299 301 302 303 303 302 303 303 300 298 295 293 291 293 294 294 294 293 291 289
295 294 295 294 294 294 294 294 293 293 295 296 296 295 297 298 297 298 300 300 299 300 299 298 299 300 302 302 301 302 301 302 300 298 295 294 295 295 294 294 295 294 293
294 294 294 293 292 291 291 292 292 294 293 293 293 292 293 294 295 297 298 300 301 301 300 299 299 300 301 300 300 301 301 301 300 299 298 297 297 298 297 296 297 296 295
291 291 291 292 291 291 289 288 290 291 292 291 291 291 291 292 293 293 294 297 298 298 299 299 299 299 298 298 300 301 300 300 299 297 296 297 298 298 296 297 297 296 297
Height
5883 5883 5883 5884 5884 5885 5885 5886 5886 5887 5888 5888 5889 5890 5890 5891 5891 5892 5892 5893 5893 5893 5893 5893 5894 5894 5894 5894 5894 5895 5895 5895 5896 5896 5896 5897 5897 5897 5897 5897 5898 5898 5898
5883 5883 5884 5884 5884 5884 5885 5885 5886 5886 5887 5888 5889 5889 5890 5890 5891 5891 5892 5892 5892 5892 5892 5892 5892 5892 5892 5893 5893 5893 5894 5894 5894 5894 5895 5895 5896 5896 5896 5896 5896 5897 5897
5883 5884 5884 5885 5885 5885 5884 5884 5885 5885 5886 5887 5888 5888 5889 5889 5890 5890 5891 5891 5891 5891 5891 5891 5891 5891 5891 5891 5891 5892 5892 5892 5892 5893 5893 5894 5894 5894 5894 5895 5895 5895 5895
5884 5884 5884 5885 5885 5885 5884 5884 5885 5885 5885 5886 5887 5887 5888 5888 5889 5889 5889 5889 5889 5890 5889 5889 5889 5889 5889 5890 5890 5890 5890 5890 5890 5891 5891 5892 5892 5892 5892 5893 5893 5893 5893
5885 5884 5884 5885 5885 5885 5885 5885 5884 5885 5885 5885 5886 5886 5887 5887 5888 5888 5888 5888 5888 5888 5888 5888 5888 5888 5888 5888 5888 5888 5888 5888 5888 5889 5889 5890 5890 5890 5890 5890 5890 5890 5890
5886 5885 5885 5885 5885 5885 5885 5885 5885 5885 5884 5885 5885 5886 5886 5887 5887 5887 5887 5887 5887 5887 5886 5886 5886 5886 5886 5886 5886 5886 5886 5886 5886 5886 5887 5887 5887 5887 5887 5887 5888 5888 5887
5886 5886 5885 5885 5885 5885 5885 5884 5884 5884 5884 5885 5885 5885 5885 5885 5885 5885 5885 5885 5885 5885 5885 5885 5885 5885 5885 5884 5884 5884 5883 5883 5884 5884 5884 5884 5884 5884 5884 5885 5885 5885 5884
5887 5886 5886 5886 5885 5885 5885 5885 5884 5884 5884 5884 5885 5885 5885 5885 5884 5884 5884 5883 5883 5883 5883 5883 5883 5883 5883 5882 5882 5881 5881 5881 5881 5881 5881 5881 5881 5881 5881 5881 5881 5881 5881
5888 5887 5886 5886 5885 5885 5885 5885 5884 5884 5884 5884 5884 5884 5884 5884 5883 5883 5882 5882 5882 5881 5881 5881 5881 5880 5880 5880 5879 5879 5878 5878 5878 5878 5878 5878 5878 5878 5878 5878 5877 5877 5877
5888 5888 5887 5886 5886 5885 5885 5884 5884 5884 5884 5884 5884 5883 5883 5882 5882 5881 5881 5880 5880 5879 5879 5878 5878 5878 5878 5877 5876 5876 5875 5875 5875 5874 5874 5874 5874 5874 5874 5874 5873 5873 5872
5889 5888 5887 5887 5886 5885 5885 5884 5884 5883 5883 5883 5883 5882 5881 5881 5880 5879 5879 5879 5878 5877 5876 5876 5876 5875 5875 5874 5873 5873 5872 5872 5872 5871 5871 5871 5870 5870 5870 5870 5869 5869 5868
5890 5889 5888 5887 5886 5885 5885 5884 5884 5883 5883 5882 5882 5881 5880 5879 5879 5877 5877 5876 5875 5875 5874 5873 5873 5872 5872 5871 5870 5869 5869 5868 5868 5868 5867 5867 5867 5866 5866 5865 5865 5864 5864
5890 5889 5888 5887 5886 5885 5885 5884 5883 5883 5882 5881 5880 5880 5879 5878 5876 5875 5875 5874 5873 5872 5871 5870 5870 5869 5868 5868 5867 5866 5865 5864 5864 5864 5864 5863 5862 5862 5861 5861 5860 5860 5859
5890 5888 5887 5886 5886 5885 5884 5883 5882 5882 5881 5880 5879 5878 5877 5876 5875 5873 5873 5872 5871 5869 5868 5867 5866 5866 5865 5864 5863 5862 5861 5861 5860 5860 5859 5858 5858 5857 5857 5856 5856 5855 5855
5889 5888 5887 5886 5885 5884 5883 5882 5881 5880 5879 5878 5877 5876 5875 5873 5872 5871 5870 5869 5868 5867 5866 5864 5863 5862 5861 5860 5859 5858 5857 5856 5856 5855 5855 5854 5853 5853 5852 5852 5851 5851 5850
5889 5887 5886 5885 5883 5883 5882 5881 5880 5879 5877 5876 5875 5873 5872 5871 5870 5869 5867 5866 5865 5864 5863 5861 5860 5858 5857 5856 5855 5854 5853 5852 5851 5850 5850 5849 5849 5848 5847 5847 5847 5846 5845
5887 5886 5885 5883 5882 5881 5880 5879 5878 5876 5875 5873 5872 5870 5869 5868 5867 5865 5864 5863 5862 5861 5860 5858 5856 5855 5853 5852 5850 5849 5848 5847 5846 5846 5845 5844 5844 5843 5843 5842 5842 5841 5840
5885 5884 5882 5881 5880 5879 5877 5876 5875 5874 5872 5870 5869 5868 5866 5864 5863 5862 5861 5859 5858 5857 5856 5855 5853 5851 5849 5847 5846 5845 5843 5842 5841 5840 5840 5839 5839 5838 5837 5837 5836 5835 5835
5883 5881 5880 5879 5877 5876 5875 5874 5872 5871 5869 5868 5866 5864 5863 5861 5860 5859 5857 5856 5854 5853 5852 5850 5849 5847 5845 5843 5841 5840 5838 5837 5836 5835 5835 5834 5833 5832 5832 5831 5830 5829 5828
5880 5879 5877 5876 5874 5873 5872 5871 5869 5868 5866 5864 5863 5861 5859 5858 5856 5855 5854 5852 5850 5849 5848 5846 5844 5843 5841 5839 5836 5835 5833 5832 5831 5830 5829 5829 5828 5827 5826 5825 5824 5823 5822
5877 5875 5874 5872 5871 5869 5868 5867 5865 5864 5862 5860 5859 5857 5856 5854 5852 5851 5849 5848 5846 5844 5843 5841 5840 5838 5836 5834 5832 5830 5829 5827 5826 5825 5824 5823 5822 5821 5820 5819 5817 5816 5815
5873 5871 5870 5868 5867 5865 5864 5862 5861 5859 5858 5856 5855 5853 5852 5850 5849 5847 5845 5843 5841 5839 5838 5836 5835 5833 5831 5829 5827 5825 5823 5822 5821 5820 5818 5817 5816 5814 5813 5812 5811 5810 5809
5868 5866 5865 5863 5862 5860 5859 5857 5856 5854 5853 5851 5850 5849 5847 5846 5844 5842 5840 5838 5836 5834 5833 5831 5829 5828 5826 5824 5822 5820 5818 5817 5815 5813 5812 5811 5809 5808 5807 5805 5804 5803 5801
5862 5861 5860 5858 5856 5855 5854 5852 5850 5849 5848 5846 5845 5843 5842 5840 5839 5837 5835 5833 5831 5829 5827 5825 5824 5822 5821 5819 5817 5815 5813 5811 5809 5807 5805 5804 5803 5802 5800 5799 5797 5796 5794
5856 5854 5853 5852 5850 5849 5848 5846 5844 5843 5842 5840 5839 5837 5836 5835 5833 5831 5829 5828 5826 5824 5822 5820 5818 5817 5815 5813 5811 5809 5807 5805 5803 5801 5799 5798 5796 5795 5793 5792 5790 5789 5787
5848 5847 5846 5845 5844 5842 5841 5839 5837 5836 5835 5834 5832 5831 5829 5828 5827 5825 5823 5821 5820 5818 5817 5815 5813 5811 5809 5807 5805 5803 5801 5798 5797 5795 5793 5791 5789 5788 5786 5785 5783 5782 5780